Location: Brad
(46.1333°N, 22.7833°E)
Time: 04:17:08
(UTC+00:00)

Cosmos 2322 Rocket - Pass Details

Date: 03 February 2023
Orbit: 831 x 852 km, 71.0° (Epoch: 29 March)

Event Time Altitude Azimuth Distance (km) Brightness Sun altitude
Rises 18:17:08 0° 242° (WSW) 3,368 6.1 -28.0°
Reaches altitude 10° 18:19:57 10° 254° (WSW) 2,438 5.4 -28.5°
Maximum altitude 18:24:36 27° 311° (NW) 1,571 4.0 -29.3°
Enters shadow 18:28:53 12° 5° (N) 2,328 4.5 -30.1°
